Weather History for KLFK - August, 2012

Change the Weather History Date:

Friday, August 17, 2012

  Actual Average Record
Temperature  
Mean Temperature 88 °F 83 °F  
Max Temperature 99 °F 94 °F 107 °F (1909)
Min Temperature 77 °F 72 °F 54 °F (1992)
Degree Days  
Heating Degree Days 0 0  
Month to date heating degree days 0 0  
Since 1 June heating degree days 0 0  
Since 1 July heating degree days 0 0  
Cooling Degree Days 23 18  
Month to date cooling degree days 395 306  
Year to date cooling degree days 2272 1777  
Since 1 June cooling degree days 1497 1308  
Growing Degree Days 38 (Base 50)    
Moisture  
Dew Point 72 °F    
Average Humidity 65    
Maximum Humidity 91    
Minimum Humidity 38    
Precipitation  
Precipitation 0.00 in 0.11 in 5.30 in (1915)
Month to date precipitation 0.57 1.74  
Year to date precipitation 28.77 28.99  
Snow  
Snow 0.00 in - - ()
Month to date snowfall 0.0  
Since 1 June snowfall 0.0  
Since 1 July snowfall 0.0  
Snow Depth 0.00 in    
Sea Level Pressure  
Sea Level Pressure 29.97 in    
Wind  
Wind Speed 5 mph (SSW)    
Max Wind Speed 12 mph    
Max Gust Speed 16 mph    
Visibility 10 miles    
Events      
T = Trace of Precipitation, MM = Missing Value Source: NWS Daily Summary

Daily Weather History Graph

Daily Weather History Graph

Search for Another Location

Airport or City:

Trip Planner

Search our weather history database for the weather conditions in past years. The results will help you decide how hot, cold, wet, or windy it might be!

Date:

Astronomy

Aug. 17, 2012 Rise Set
Actual Time 6:46 AM CDT 7:59 PM CDT
Civil Twilight 6:20 AM CDT 8:24 PM CDT
Nautical Twilight 5:50 AM CDT 8:54 PM CDT
Astronomical Twilight 5:19 AM CDT 9:25 PM CDT
Moon 6:45 AM CDT (8/17) 7:49 PM CDT (8/17)
Length of Visible Light 14h 03m
Length of Day
13h 12m
New Moon, 0% of the Moon is Illuminated
Aug 17
New Moon
Aug 24
First Quarter
Aug 31
Full
Sep 8
Last Quarter
Sep 15
New

Hourly Weather History & Observations

Time (CDT) Temp. Heat Index Dew Point Humidity Pressure Visibility Wind Dir Wind Speed Gust Speed Precip Events Conditions
12:53 AM 84.0 °F 91.2 °F 73.9 °F 72% 29.99 in 10.0 mi South 3.5 mph - N/A   Clear
1:53 AM 82.0 °F 87.9 °F 73.9 °F 76% 29.98 in 10.0 mi South 4.6 mph - N/A   Clear
2:53 AM 82.0 °F 87.9 °F 73.9 °F 76% 29.96 in 10.0 mi South 6.9 mph - N/A   Clear
3:53 AM 81.0 °F 86.2 °F 73.9 °F 79% 29.96 in 10.0 mi South 4.6 mph - N/A   Clear
4:53 AM 81.0 °F 86.7 °F 75.0 °F 82% 29.96 in 10.0 mi SSW 3.5 mph - N/A   Clear
5:53 AM 80.1 °F 85.1 °F 75.0 °F 85% 29.99 in 10.0 mi Calm Calm - N/A   Clear
6:53 AM 79.0 °F - 73.9 °F 84% 29.98 in 10.0 mi Calm Calm - N/A   Clear
7:53 AM 79.0 °F - 75.0 °F 88% 30.01 in 10.0 mi North 4.6 mph - N/A   Partly Cloudy
8:07 AM 80.6 °F 86.2 °F 75.2 °F 84% 30.03 in 10.0 mi North 5.8 mph - N/A   Mostly Cloudy
8:42 AM 82.4 °F 89.5 °F 75.2 °F 79% 30.04 in 10.0 mi North 5.8 mph - N/A   Mostly Cloudy
8:53 AM 82.9 °F 90.2 °F 75.0 °F 77% 30.03 in 10.0 mi NNW 4.6 mph - N/A   Mostly Cloudy
9:43 AM 82.4 °F 88.2 °F 73.4 °F 74% 30.04 in 10.0 mi NW 8.1 mph - N/A   Mostly Cloudy
9:53 AM 82.4 °F 88.2 °F 73.4 °F 74% 30.04 in 10.0 mi NNW 9.2 mph - N/A   Mostly Cloudy
10:18 AM 82.4 °F 87.2 °F 71.6 °F 70% 30.05 in 10.0 mi North 10.4 mph - N/A   Scattered Clouds
10:53 AM 84.0 °F 89.0 °F 71.1 °F 65% 30.04 in 10.0 mi NNW 3.5 mph - N/A   Clear
11:53 AM 87.1 °F 92.8 °F 71.1 °F 59% 30.02 in 10.0 mi West 6.9 mph - N/A   Clear
12:53 PM 90.0 °F 96.4 °F 71.1 °F 54% 29.99 in 10.0 mi Variable 4.6 mph - N/A   Partly Cloudy
1:53 PM 93.0 °F 99.0 °F 70.0 °F 47% 29.96 in 10.0 mi SSW 5.8 mph - N/A   Clear
2:53 PM 97.0 °F 102.8 °F 69.1 °F 40% 29.93 in 10.0 mi South 11.5 mph 16.1 mph N/A   Partly Cloudy
3:53 PM 96.1 °F 99.3 °F 66.0 °F 37% 29.90 in 10.0 mi Calm Calm - N/A   Clear
4:53 PM 97.0 °F 100.4 °F 66.0 °F 36% 29.87 in 10.0 mi Calm Calm - N/A   Mostly Cloudy
5:53 PM 97.0 °F 100.4 °F 66.0 °F 36% 29.87 in 10.0 mi Calm Calm - N/A   Partly Cloudy
6:53 PM 93.0 °F 99.0 °F 70.0 °F 47% 29.88 in 10.0 mi South 9.2 mph - N/A   Mostly Cloudy
7:53 PM 88.0 °F 92.9 °F 70.0 °F 55% 29.89 in 10.0 mi SE 4.6 mph - N/A   Scattered Clouds
8:53 PM 86.0 °F 93.0 °F 73.0 °F 65% 29.90 in 10.0 mi South 4.6 mph - N/A   Clear
9:53 PM 84.0 °F 87.8 °F 69.1 °F 61% 29.91 in 10.0 mi SE 5.8 mph - N/A   Clear
10:53 PM 82.0 °F 85.5 °F 69.1 °F 65% 29.93 in 10.0 mi SSE 5.8 mph - N/A   Clear
11:53 PM 81.0 °F 84.4 °F 70.0 °F 69% 29.91 in 10.0 mi SSE 5.8 mph - N/A   Clear